Home > Weather > Bratislava > Past weeks

Flag for Slovakia Weather for the Past 2 Weeks in Bratislava, Slovakia

Now
34 °F

Clear.


Feels Like: 29 °F
Forecast: 36 / 41 °F
Wind: 6 mph from East

Location: Bratislava Ivanka

Current Time: Feb 12, 2016 at 4:46:55 AM

Latest Report: Feb 12, 2016 at 4:00 AM


Visibility: 10 mi

Pressure: 29.77 "Hg

Humidity: 87%

Dew point: 30 °F

Location of BratislavaLocation

Historic Weather in Bratislava — Graph

°F

Bratislava Temperature Yesterday

Maximum temperature yesterday: 46 °F (at 1:30 PM)
Minimum temperature yesterday: 37 °F (at 4:00 AM)
Average temperature yesterday: 41 °F

High & Low Weather Summary for the Past Weeks

 TemperatureHumidityPressure
High55 °F (Feb 2, 12:30 AM)100% (Jan 28, 3:00 AM)30.42 "Hg (Jan 28, 3:00 AM)
Low30 °F (Jan 30, 2:30 AM)49% (Feb 4, 1:30 PM)29.27 "Hg (Feb 10, 9:30 AM)
Average43 °F79%30.00 "Hg
* Reported Jan 28 3:00 AM — Feb 12 3:30 AM, Bratislava, Weather by CustomWeather, © 2016

Note: Actual official high and low records may vary slightly from our data, if they occured in-between our weather recording intervals... More about our weather records

Advertising

Bratislava Weather History for the Previous 24 Hours

 ConditionsComfort  
Time TempWeatherWind HumidityBarometerVisibility
3:30 AM
Fri, Feb 12
34 °FClear.3 mph87%29.77 "Hg10 mi
3:00 AM34 °FClear.2 mph87%29.77 "Hg10 mi
2:30 AM36 °FPassing clouds.3 mph81%29.77 "HgN/A
2:00 AM36 °FPassing clouds.5 mph87%29.77 "HgN/A
1:30 AM36 °FPassing clouds.5 mph81%29.77 "HgN/A
1:00 AM36 °FPassing clouds.6 mph87%29.80 "HgN/A
12:30 AM36 °FPassing clouds.2 mph81%29.77 "HgN/A
12:00 AM36 °FLight rain. Passing clouds.6 mph81%29.80 "HgN/A
11:00 PM
Thu, Feb 11
39 °FPassing clouds.3 mph65%29.80 "HgN/A
10:30 PM37 °FClear.5 mph70%29.80 "Hg10 mi
10:00 PM37 °FClear.6 mph70%29.77 "Hg10 mi
9:30 PM37 °FClear.7 mph70%29.80 "Hg10 mi
9:00 PM37 °FClear.7 mph70%29.77 "Hg10 mi
8:30 PM37 °FClear.7 mph70%29.77 "Hg10 mi
8:00 PM39 °FClear.9 mph70%29.77 "Hg10 mi
7:30 PM41 °FClear.12 mph66%29.77 "Hg10 mi
7:00 PM41 °FClear.10 mph66%29.77 "Hg10 mi
6:30 PM41 °FClear.9 mph66%29.77 "Hg10 mi
6:00 PM41 °FPassing clouds.10 mph66%29.77 "HgN/A
5:30 PM41 °FPassing clouds.12 mph66%29.77 "HgN/A
5:00 PM43 °FScattered clouds.20 mph61%29.74 "HgN/A
4:30 PM45 °FBroken clouds.13 mph57%29.74 "HgN/A
4:00 PM45 °FScattered clouds.15 mph53%29.74 "HgN/A
3:30 PM46 °FBroken clouds.15 mph53%29.74 "HgN/A
3:00 PM46 °FPartly sunny.15 mph53%29.74 "HgN/A
2:30 PM45 °FPartly sunny.20 mph57%29.74 "HgN/A
2:00 PM46 °FPartly sunny.13 mph53%29.71 "HgN/A
1:30 PM46 °FPartly sunny.14 mph57%29.71 "HgN/A
1:00 PM45 °FPartly sunny.12 mph57%29.71 "HgN/A
12:30 PM45 °FScattered clouds.14 mph61%29.71 "HgN/A
12:00 PM43 °FBroken clouds.15 mph66%29.71 "HgN/A
11:30 AM43 °FBroken clouds.14 mph66%29.71 "HgN/A
11:00 AM43 °FBroken clouds.14 mph61%29.71 "HgN/A
10:30 AM41 °FPartly sunny.15 mph66%29.71 "HgN/A
10:00 AM41 °FPartly sunny.15 mph66%29.68 "HgN/A
9:30 AM41 °FPartly sunny.12 mph66%29.68 "HgN/A
9:00 AM41 °FPartly sunny.12 mph66%29.68 "HgN/A
8:30 AM41 °FLight rain. Partly sunny.9 mph66%29.68 "HgN/A
8:00 AM39 °FScattered showers. Partly sunny.14 mph70%29.65 "HgN/A
7:30 AM39 °FPartly sunny.9 mph70%29.65 "HgN/A
7:00 AM39 °FPassing clouds.8 mph70%29.65 "HgN/A
6:30 AM41 °FPassing clouds.15 mph61%29.62 "HgN/A
6:00 AM41 °FClear.16 mph61%29.62 "Hg10 mi
5:30 AM41 °FPartly cloudy.16 mph66%29.62 "HgN/A
5:00 AM39 °FPartly cloudy.15 mph70%29.59 "HgN/A
4:30 AM39 °FSprinkles. Partly cloudy.14 mph75%29.59 "HgN/A
4:00 AM37 °FSprinkles. Partly cloudy.16 mph87%29.59 "HgN/A
Weather by CustomWeather, © 2016

See weather overviewHow to use our weather pages